GW2817 Weather Reports


time (UTC)temp
C
wind
direction
speed
KPH
gust
KPH
rain 1hr
cm
rain 24hr
cm
rain mn
cm
humidity
%
barometer
mb
20260507170019 18 68 0.0 14.5 0.00 0.00 0.00 20 1010.0
20260507165510 17 0 0.0 14.5 0.00 0.00 0.00 18 1010.1
20260507164959 17 135 0.0 4.8 0.00 0.00 0.00 18 1010.5
20260507164449 17 90 0.0 6.4 0.00 0.00 0.00 18 1010.6
20260507164210 17 90 0.0 6.4 0.00 0.00 0.00 18 1010.3
20260507163429 17 135 0.0 3.2 0.00 0.00 0.00 18 1010.9
20260507162919 17 45 0.0 6.4 0.00 0.00 0.00 19 1011.2
20260507162408 17 90 0.0 9.7 0.00 0.00 0.00 18 1011.1
20260507161858 16 45 3.2 9.7 0.00 0.00 0.00 20 1011.2
20260507161348 16 135 0.0 11.3 0.00 0.00 0.00 20 1011.4
20260507161109 16 90 0.0 12.9 0.00 0.00 0.00 21 1011.5
20260507160328 16 45 1.6 12.9 0.00 0.00 0.00 21 1011.7
20260507160049 15 45 1.6 9.7 0.00 0.00 0.00 22 1011.7
20260507155308 16 0 3.2 8.0 0.00 0.00 0.00 22 1011.7
20260507154758 16 90 3.2 8.0 0.00 0.00 0.00 24 1011.8
20260507154247 15 135 0.0 14.5 0.00 0.00 0.00 25 1011.8
20260507153737 15 135 1.6 14.5 0.00 0.00 0.00 27 1011.8
20260507153226 15 90 1.6 12.9 0.00 0.00 0.00 26 1012.0
20260507152716 15 113 0.0 11.3 0.00 0.00 0.00 27 1012.4
20260507152207 15 90 3.2 6.4 0.00 0.00 0.00 26 1012.4
20260507151657 14 90 0.0 3.2 0.00 0.00 0.00 27 1012.5
20260507151145 14 90 0.0 3.2 0.00 0.00 0.00 30 1012.7
20260507150636 14 90 0.0 3.2 0.00 0.00 0.00 29 1013.0
20260507150125 14 90 0.0 3.2 0.00 0.00 0.00 28 1013.4
20260507145616 15 90 0.0 12.9 0.00 0.00 0.00 29 1013.2
20260507145106 13 180 0.0 12.9 0.00 0.00 0.00 31 1013.2
20260507144555 14 180 6.4 14.5 0.00 0.00 0.00 31 1013.2
20260507144316 13 135 6.4 14.5 0.00 0.00 0.00 32 1013.1
20260507143535 13 135 0.0 12.9 0.00 0.00 0.00 33 1013.2
20260507143255 13 158 0.0 12.9 0.00 0.00 0.00 34 1013.0
20260507142515 13 180 0.0 8.0 0.00 0.00 0.00 35 1013.1
20260507142236 13 135 0.0 6.4 0.00 0.00 0.00 35 1013.2
20260507141455 13 135 0.0 6.4 0.00 0.00 0.00 34 1013.2
20260507140944 13 180 0.0 3.2 0.00 0.00 0.00 35 1012.8
20260507140434 13 180 0.0 3.2 0.00 0.00 0.00 38 1013.0
20260507135924 12 180 0.0 9.7 0.00 0.00 0.00 38 1013.0
20260507135414 12 90 0.0 16.1 0.00 0.00 0.00 38 1013.1
20260507134911 12 180 1.6 16.1 0.00 0.00 0.00 39 1012.7
20260507134354 12 135 6.4 16.1 0.00 0.00 0.00 39 1012.6
20260507133844 12 158 3.2 12.9 0.00 0.00 0.00 37 1013.0
20260507133333 12 45 0.0 9.7 0.00 0.00 0.00 37 1013.0
20260507132824 12 135 0.0 6.4 0.00 0.00 0.00 36 1013.1
20260507132313 12 135 0.0 6.4 0.00 0.00 0.00 33 1013.1
20260507131253 13 180 0.0 6.4 0.00 0.00 0.00 28 1013.0
20260507130744 14 180 0.0 6.4 0.00 0.00 0.00 22 1012.6
20260507130232 14 225 0.0 9.7 0.00 0.00 0.00 23 1012.5
20260507125723 13 135 0.0 12.9 0.00 0.00 0.00 24 1012.5
20260507125212 14 45 3.2 12.9 0.00 0.00 0.00 24 1012.4
20260507124702 14 225 0.0 1.6 0.00 0.00 0.00 24 1012.7
20260507124152 14 180 0.0 1.6 0.00 0.00 0.00 22 1012.3
20260507123642 13 180 0.0 1.6 0.00 0.00 0.00 23 1012.5
20260507123403 12 45 0.0 6.4 0.00 0.00 0.00 23 1012.3
20260507122622 12 45 0.0 6.4 0.00 0.00 0.00 28 1012.2
20260507122111 11 0 0.0 8.0 0.00 0.00 0.00 31 1012.3
20260507121601 10 0 6.4 8.0 0.00 0.00 0.00 34 1012.6
20260507121051 10 0 1.6 8.0 0.00 0.00 0.00 37 1012.6
20260507120547 9 0 0.0 6.4 0.00 0.00 0.00 38 1012.6
20260507120030 8 0 0.0 6.4 0.00 0.00 0.00 41 1012.0
20260507115520 8 0 0.0 3.2 0.00 0.00 0.00 45 1011.8
20260507115010 7 225 0.0 4.8 0.00 0.00 0.00 47 1011.9
20260507114731 7 338 0.0 4.8 0.00 0.00 0.00 46 1012.3
20260507114221 7 338 0.0 9.7 0.00 0.00 0.00 48 1011.9
20260507113440 6 270 0.0 9.7 0.00 0.00 0.00 49 1011.7
20260507112930 6 180 0.0 3.2 0.00 0.00 0.00 49 1011.7
20260507112420 6 180 0.0 3.2 0.00 0.00 0.00 49 1011.5
20260507111910 6 270 0.0 3.2 0.00 0.00 0.00 49 1011.1
20260507111401 6 270 0.0 3.2 0.00 0.00 0.00 50 1011.4
20260507110850 6 315 0.0 3.2 0.00 0.00 0.00 51 1011.2
20260507110343 6 225 0.0 3.2 0.00 0.00 0.00 53 1011.1
20260507105831 5 225 0.0 3.2 0.00 0.00 0.00 53 1011.1
20260507105319 5 90 0.0 1.6 0.00 0.00 0.00 52 1011.2
20260507104809 6 315 0.0 11.3 0.00 0.00 0.00 51 1010.5
20260507104259 6 225 0.0 11.3 0.00 0.00 0.00 51 1010.3
20260507103748 6 248 6.4 12.9 0.00 0.00 0.00 51 1010.3
20260507103238 7 225 6.4 14.5 0.00 0.00 0.00 51 1010.0
20260507102729 7 180 6.4 14.5 0.00 0.00 0.00 51 1010.0
20260507102219 6 203 3.2 11.3 0.00 0.00 0.00 51 1009.8
20260507101712 6 270 3.2 11.3 0.00 0.00 0.00 52 1009.9
20260507101429 6 315 0.0 12.9 0.00 0.00 0.00 53 1010.1
20260507100648 6 248 0.0 14.5 0.00 0.00 0.00 52 1009.7
20260507100138 7 293 1.6 14.5 0.00 0.00 0.00 49 1009.4
20260507095858 8 45 3.2 12.9 0.00 0.00 0.00 46 1009.1
20260507095118 7 45 3.2 19.3 0.00 0.00 0.00 48 1008.9
20260507094603 7 0 12.9 20.9 0.00 0.00 0.00 52 1008.9
20260507094057 7 315 8.0 24.1 0.00 0.00 0.00 52 1008.8
20260507093547 7 225 0.0 24.1 0.00 0.00 0.00 54 1008.9
20260507093041 6 0 17.7 22.5 0.00 0.00 0.00 58 1009.4
20260507092526 5 315 6.4 12.9 0.00 0.00 0.00 56 1009.0
20260507092017 5 270 4.8 12.9 0.00 0.00 0.00 54 1008.9
20260507091511 5 203 4.8 9.7 0.00 0.00 0.00 53 1008.6
20260507090956 6 180 0.0 4.8 0.00 0.00 0.00 52 1008.9
20260507090446 6 248 0.0 4.8 0.00 0.00 0.00 51 1008.9
20260507085936 6 225 0.0 6.4 0.00 0.00 0.00 51 1008.6
20260507085426 6 225 0.0 12.9 0.00 0.00 0.00 49 1009.0
20260507084916 7 203 0.0 12.9 0.00 0.00 0.00 45 1008.9
20260507084405 7 225 3.2 11.3 0.00 0.00 0.00 42 1008.8
20260507084126 7 225 0.0 4.8 0.00 0.00 0.00 32 1008.6
20260507083345 7 180 0.0 8.0 0.00 0.00 0.00 30 1008.6
20260507082835 8 270 0.0 12.9 0.00 0.00 0.00 32 1008.4
20260507082324 8 225 3.2 19.3 0.00 0.00 0.00 27 1008.1
20260507081815 10 180 12.9 19.3 0.00 0.00 0.00 21 1007.7
20260507081305 10 203 11.3 17.7 0.00 0.00 0.00 19 1007.4
20260507080755 10 0 3.2 14.5 0.00 0.00 0.00 19 1007.3
20260507080516 11 225 3.2 11.3 0.00 0.00 0.00 19 1006.9
20260507075733 12 315 0.0 19.3 0.00 0.00 0.00 18 1006.6
20260507075224 13 315 1.6 27.4 0.00 0.00 0.00 19 1006.1
20260507074945 13 0 1.6 29.0 0.00 0.00 0.00 20 1005.7
20260507074205 13 338 17.7 37.0 0.00 0.00 0.00 18 1005.3
20260507073653 13 315 17.7 37.0 0.00 0.00 0.00 18 1005.8
20260507073143 14 225 17.7 35.4 0.00 0.00 0.00 19 1005.6
20260507072634 13 315 14.5 37.0 0.00 0.00 0.00 19 1004.2
20260507072354 12 293 17.7 37.0 0.00 0.00 0.00 20 1004.8
20260507071614 12 45 25.7 48.3 0.00 0.00 0.00 19 1004.4
20260507071103 13 0 19.3 57.9 0.00 0.00 0.00 19 1004.8
20260507070823 13 0 32.2 57.9 0.00 0.00 0.00 20 1004.3
20260507070042 13 0 32.2 54.7 0.00 0.00 0.00 20 1004.4
20260507065533 13 338 24.1 51.5 0.00 0.00 0.00 19 1004.4
20260507065253 14 315 12.9 51.5 0.00 0.00 0.00 19 1004.9
20260507064512 14 315 24.1 49.9 0.00 0.00 0.00 19 1004.8
20260507064001 14 293 29.0 48.3 0.00 0.00 0.00 18 1004.6
20260507063452 14 293 20.9 41.8 0.00 0.00 0.00 19 1004.4
20260507062940 15 0 19.3 43.5 0.00 0.00 0.00 17 1004.6
20260507062431 14 315 16.1 48.3 0.00 0.00 0.00 18 1003.6
20260507061921 14 315 22.5 48.3 0.00 0.00 0.00 18 1004.0
20260507061411 13 270 17.7 48.3 0.00 0.00 0.00 18 1003.6
20260507060901 13 315 20.9 38.6 0.00 0.00 0.00 19 1003.6
20260507060351 13 315 14.5 40.2 0.00 0.00 0.00 20 1004.0
20260507055840 13 338 19.3 40.2 0.00 0.00 0.00 19 1004.2
20260507055330 13 315 20.9 43.5 0.00 0.00 0.00 20 1004.3
20260507054820 13 315 24.1 43.5 0.00 0.00 0.00 20 1004.4
20260507054310 12 315 25.7 37.0 0.00 0.00 0.00 20 1004.3
20260507053800 13 315 16.1 43.5 0.00 0.00 0.00 20 1004.6
20260507053250 13 0 17.7 43.5 0.00 0.00 0.00 19 1004.8
20260507052739 13 315 14.5 38.6 0.00 0.00 0.00 20 1004.8
20260507052230 13 315 17.7 38.6 0.00 0.00 0.00 19 1005.3
20260507051719 13 225 6.4 37.0 0.00 0.00 0.00 18 1005.1
20260507051440 13 225 9.7 43.5 0.00 0.00 0.00 20 1004.9
20260507050659 13 270 14.5 43.5 0.00 0.00 0.00 20 1005.0
20260507050149 13 180 20.9 43.5 0.00 0.00 0.00 20 1004.9
20260507045638 14 315 6.4 41.8 0.00 0.00 0.00 19 1004.9
20260507045129 14 315 12.9 41.8 0.00 0.00 0.00 19 1005.1
20260507044618 14 315 16.1 33.8 0.00 0.00 0.00 19 1004.9
20260507044338 14 315 8.0 33.8 0.00 0.00 0.00 19 1004.9
20260507043558 12 315 12.9 37.0 0.00 0.00 0.00 22 1004.0
20260507043328 12 225 17.7 43.5 0.00 0.00 0.00 22 1004.4
20260507042538 12 0 22.5 43.5 0.00 0.00 0.00 22 1004.0
20260507042027 12 315 24.1 46.7 0.00 0.00 0.00 20 1004.1
20260507041527 12 203 25.7 46.7 0.00 0.00 0.00 23 1004.2
20260507041007 12 180 14.5 51.5 0.00 0.00 0.00 22 1004.2
20260507040457 12 315 25.7 51.5 0.00 0.00 0.00 26 1003.5
20260507035948 11 225 20.9 46.7 0.00 0.00 0.00 30 1003.4
20260507035437 11 315 22.5 51.5 0.00 0.00 0.00 35 1003.4
20260507034927 11 225 24.1 51.5 0.00 0.00 0.00 35 1003.3
20260507034429 11 315 35.4 54.7 0.00 0.00 0.00 39 1003.5
20260507033907 11 225 19.3 54.7 0.00 0.00 0.00 39 1003.4
20260507033358 11 315 20.9 46.7 0.00 0.00 0.00 42 1003.2
20260507032846 11 315 20.9 46.7 0.00 0.00 0.00 42 1003.6
20260507032336 11 0 24.1 46.7 0.00 0.00 0.00 39 1003.3
20260507032057 11 315 29.0 41.8 0.00 0.00 0.00 39 1002.7
20260507031316 12 270 27.4 43.5 0.00 0.00 0.00 33 1002.4
20260507030806 12 270 14.5 43.5 0.00 0.00 0.00 34 1002.3
20260507030255 12 45 17.7 37.0 0.00 0.00 0.00 35 1003.0
20260507025745 12 315 12.9 45.1 0.00 0.00 0.00 33 1002.6
20260507025506 12 315 17.7 45.1 0.00 0.00 0.00 33 1002.4
20260507024725 12 293 19.3 45.1 0.00 0.00 0.00 33 1001.7
20260507024214 12 248 12.9 33.8 0.00 0.00 0.00 33 1002.4
20260507023705 12 338 12.9 35.4 0.00 0.00 0.00 33 1002.3
20260507023155 12 293 20.9 40.2 0.00 0.00 0.00 34 1002.6
20260507022644 12 315 17.7 40.2 0.00 0.00 0.00 34 1001.9
20260507022135 12 315 16.1 37.0 0.00 0.00 0.00 33 1002.6
20260507021624 12 315 14.5 37.0 0.00 0.00 0.00 34 1003.5
20260507021114 12 315 11.3 35.4 0.00 0.00 0.00 34 1003.4
20260507020604 12 293 19.3 35.4 0.00 0.00 0.00 38 1003.5
20260507020053 11 270 16.1 32.2 0.00 0.00 0.00 41 1003.4
20260507015550 11 315 17.7 48.3 0.00 0.00 0.00 45 1003.6
20260507015034 11 293 17.7 48.3 0.00 0.00 0.00 46 1003.2
20260507014524 11 270 29.0 49.9 0.00 0.00 0.00 47 1002.5
20260507014013 11 225 19.3 49.9 0.00 0.00 0.00 45 1002.6
20260507013503 12 248 19.3 49.9 0.00 0.00 0.00 41 1003.0
20260507012952 12 270 22.5 49.9 0.00 0.00 0.00 38 1003.2
20260507012442 12 315 32.2 48.3 0.00 0.00 0.00 38 1003.3
20260507011932 12 0 30.6 48.3 0.00 0.00 0.00 36 1003.2
20260507011652 13 248 16.1 35.4 0.00 0.00 0.00 34 1003.3
20260507010912 13 293 14.5 33.8 0.00 0.00 0.00 33 1003.0
20260507010401 14 225 17.7 37.0 0.00 0.00 0.00 26 1003.2
20260507005852 15 315 22.5 37.0 0.00 0.00 0.00 23 1002.4
20260507005341 15 90 11.3 29.0 0.00 0.00 0.00 21 1001.9
20260507004832 16 270 20.9 29.0 0.00 0.00 0.00 19 1002.1
20260507004321 15 315 12.9 27.4 0.00 0.00 0.00 22 1001.6
20260507003810 15 0 6.4 27.4 0.00 0.00 0.00 24 1001.6
20260507002751 15 225 14.5 33.8 0.00 0.00 0.00 25 1001.3
20260507002240 15 225 14.5 32.2 0.00 0.00 0.00 24 1001.4
20260507001730 15 315 14.5 33.8 0.00 0.00 0.00 24 1001.1
20260507001452 15 225 11.3 33.8 0.00 0.00 0.00 24 1001.5
20260507000941 15 180 17.7 33.8 0.00 0.00 0.00 23 1001.3
20260507000200 16 225 12.9 35.4 0.00 0.00 0.00 20 1000.9
20260506235649 16 270 14.5 35.4 0.00 0.00 0.00 20 1000.9
20260506235141 15 225 12.9 29.0 0.00 0.00 0.00 22 1000.8
20260506234630 16 293 17.7 27.4 0.00 0.00 0.00 21 1000.7
20260506234119 16 225 6.4 33.8 0.00 0.00 0.00 20 1000.4
20260506233609 16 248 8.0 35.4 0.00 0.00 0.00 20 1000.5
20260506233059 16 315 8.0 35.4 0.00 0.00 0.00 19 1000.5
20260506232548 16 225 17.7 32.2 0.00 0.00 0.00 19 1000.1
20260506231529 15 338 14.5 33.8 0.00 0.00 0.00 23 1000.1
20260506231018 15 270 17.7 33.8 0.00 0.00 0.00 23 1000.2
20260506230509 16 293 6.4 30.6 0.00 0.00 0.00 21 1000.5
20260506225957 16 203 17.7 30.6 0.00 0.00 0.00 20 1000.8
20260506225448 16 315 6.4 16.1 0.00 0.00 0.00 21 1000.4
20260506224938 16 248 8.0 17.7 0.00 0.00 0.00 21 1000.2
20260506224427 16 270 1.6 27.4 0.00 0.00 0.00 21 1000.1
20260506223917 17 225 12.9 27.4 0.00 0.00 0.00 20 1000.1
20260506223408 17 225 12.9 27.4 0.00 0.00 0.00 20 1000.1
20260506223129 17 225 6.4 29.0 0.00 0.00 0.00 19 999.8
20260506222619 16 225 20.9 29.0 0.00 0.00 0.00 20 999.9
20260506221837 16 270 6.4 22.5 0.00 0.00 0.00 21 999.7
20260506221327 16 315 3.2 17.7 0.00 0.00 0.00 21 999.6
20260506220816 16 0 3.2 24.1 0.00 0.00 0.00 22 999.7
20260506220306 16 270 8.0 24.1 0.00 0.00 0.00 22 999.6
20260506215757 16 315 6.4 19.3 0.00 0.00 0.00 23 999.4
20260506215246 16 225 8.0 24.1 0.00 0.00 0.00 24 999.2
20260506215007 16 180 11.3 30.6 0.00 0.00 0.00 24 998.6
20260506214226 16 270 12.9 30.6 0.00 0.00 0.00 23 999.2
20260506213716 16 315 12.9 24.1 0.00 0.00 0.00 24 999.3
20260506213205 16 315 14.5 24.1 0.00 0.00 0.00 31 999.1
20260506212654 16 0 0.0 6.4 0.00 0.00 0.00 58 999.2
20260506212145 16 0 0.0 6.4 0.00 0.00 0.00 58 999.1
20260506211635 16 315 1.6 6.4 0.00 0.00 0.00 58 999.6
20260506211126 16 315 0.0 0.0 0.00 0.00 0.00 58 999.7
20260506210616 16 315 0.0 0.0 0.00 0.00 0.00 57 999.6
20260506210336 16 338 0.0 3.2 0.00 0.00 0.00 56 999.6
20260506205554 17 0 0.0 3.2 0.00 0.00 0.00 55 999.4
20260506205044 17 0 0.0 1.6 0.00 0.00 0.00 53 999.4
20260506204533 17 0 0.0 0.0 0.00 0.00 0.00 52 999.2
20260506204024 17 0 0.0 1.6 0.00 0.00 0.00 52 999.3
20260506203514 17 0 0.0 3.2 0.00 0.00 0.00 52 998.9
20260506202453 17 315 0.0 4.8 0.00 0.00 0.00 53 999.2
20260506201943 18 338 1.6 4.8 0.00 0.00 0.00 53 999.4
20260506201434 18 0 0.0 1.6 0.00 0.00 0.00 52 999.0
20260506200924 18 180 0.0 1.6 0.00 0.00 0.00 52 998.5
20260506200414 18 180 0.0 3.2 0.00 0.00 0.00 52 999.4
20260506195903 18 45 0.0 3.2 0.00 0.00 0.00 52 998.9
20260506195353 18 90 0.0 3.2 0.00 0.00 0.00 50 998.6
20260506194842 18 180 0.0 3.2 0.00 0.00 0.00 50 998.8
20260506194332 18 113 0.0 3.2 0.00 0.00 0.00 49 999.0
20260506194053 18 113 0.0 1.6 0.00 0.00 0.00 51 999.1
20260506193543 18 0 0.0 0.0 0.00 0.00 0.00 51 999.1
20260506192802 18 23 0.0 3.2 0.00 0.00 0.00 52 999.4
20260506192252 18 180 0.0 12.9 0.00 0.00 0.00 52 999.1
20260506191741 18 90 0.0 12.9 0.00 0.00 0.00 52 998.9
20260506191232 18 135 0.0 11.3 0.00 0.00 0.00 51 998.4
20260506190721 18 135 1.6 6.4 0.00 0.00 0.00 51 999.1
20260506190450 18 270 0.0 3.2 0.00 0.00 0.00 52 998.8
20260506185932 18 90 0.0 4.8 0.00 0.00 0.00 52 998.6
20260506185151 18 90 0.0 4.8 0.00 0.00 0.00 51 999.1
20260506184912 19 0 0.0 3.2 0.00 0.00 0.00 51 998.8
20260506184403 19 113 0.0 9.7 0.00 0.00 0.00 51 998.3
20260506183620 19 135 0.0 11.3 0.00 0.00 0.00 49 998.5
20260506183110 19 180 6.4 11.3 0.00 0.00 0.00 46 998.3
20260506182601 20 135 0.0 3.2 0.00 0.00 0.00 44 998.1
20260506182049 20 135 0.0 1.6 0.00 0.00 0.00 42 998.0
20260506181539 20 0 0.0 3.2 0.00 0.00 0.00 43 998.3
20260506181030 20 135 0.0 3.2 0.00 0.00 0.00 43 998.3
20260506180519 20 90 0.0 3.2 0.00 0.00 0.00 44 997.9
20260506180009 20 180 0.0 8.0 0.00 0.00 0.00 45 998.4
20260506175500 20 225 0.0 12.9 0.00 0.00 0.00 44 998.8
20260506174950 21 180 4.8 12.9 0.00 0.00 0.00 44 998.2
20260506174439 21 90 0.0 6.4 0.00 0.00 0.00 45 998.4
20260506173929 21 225 0.0 1.6 0.00 0.00 0.00 46 999.0
20260506173419 20 0 0.0 6.4 0.00 0.00 0.00 48 999.3
20260506172908 20 135 3.2 6.4 0.00 0.00 0.00 47 998.6
20260506172358 20 135 0.0 6.4 0.00 0.00 0.00 50 998.9
20260506171849 20 113 1.6 8.0 0.00 0.00 0.00 50 999.1
20260506171059 20 45 0.0 8.0 0.00 0.00 0.00 50 999.2